Regional Weather Roundup
Issued by NWS Bismarck, ND

Home | Current Version | Previous Version | Text Only | Print | Product List | Glossary On
Versions: 1 2 3 4 5 6 7 8 9 10 11 12 13 14 15 16 17 18 19 20 21 22 23 24 25 26 27 28 29 30 31 32 33 34 35 36 37 38 39 40 41 42 43 44 45 46 47 48 49 50
526
ASUS43 KBIS 280610
RWRBIS

NWR BROADCAST TEXT
NATIONAL WEATHER SERVICE BISMARCK ND
1200 AM CST TUE FEB 28 2017

NOTE: "FAIR" INDICATES FEW OR NO CLOUDS BELOW 12,000 FEET WITH NO
SIGNIFICANT WEATHER AND/OR OBSTRUCTIONS TO VISIBILITY.


CITY           SKY/WX    TMP DP  RH WIND       PRES   REMARKS
WILLISTON      FAIR       4   1  88 NE3       29.84S
MINOT          CLOUDY     4  -1  80 W3        29.87F
MINOT AFB      MOCLDY    -4  -8  84 NW5       29.88S WCI -15
BISMARCK       CLOUDY    20  16  84 NE7       29.85S WCI  11
DICKINSON      CLOUDY    14  11  87 E7        29.76R WCI   4
GARRISON         N/A     -4  -7  87 N7        29.85S WCI -18
HETTINGER ARPT CLOUDY    18  16  92 E9        29.78R WCI   7
JAMESTOWN      CLOUDY    19  16  88 NE13      29.84F WCI   6
CARRINGTON     CLOUDY    14  12  92 NE8       29.89F WCI   3
HAZEN            N/A    N/A N/A N/A E5        29.87S
MANDAN         CLOUDY    18  16  93 NE9       29.84R WCI   6
RUGBY            N/A      0  -2  92 E10       29.89F WCI -17
STANLEY        CLOUDY    -2  -6  84 CALM      29.85S
TIOGA          FAIR      -2  -2 100 E5        29.84S WCI -12
WATFORD CITY   FAIR       0  -4  85 CALM      29.83S
$$

CITY           SKY/WX    TMP DP  RH WIND       PRES   REMARKS
GRAND FORKS    CLOUDY    17  10  74 N13       29.92F WCI   4
GRAND FORKS AF CLOUDY    15  10  82 N12       29.93S WCI   2
DEVILS LAKE    NOT AVBL
FARGO          FAIR      23  20  88 N15       29.87R WCI  10
CAVALIER         N/A     10   7  85 N9        29.97F WCI  -2
GRAFTON        FLURRIES  12   9  85 N13       29.97S WCI  -3
GWINNER        FAIR      27  23  86 N18G24    29.82F WCI  13
ROLLA          FAIR       1   0  92 N6        29.90F WCI -10
$$

CITY           SKY/WX    TMP DP  RH WIND       PRES   REMARKS
ABERDEEN       LGT SNOW  27  22  81 NE13      29.79R WCI  16
MOBRIDGE       CLOUDY    28  22  78 NE12      29.75S WCI  18
BUFFALO          N/A     20  18  92 E16       29.65F WCI   6
RAPID CITY     FAIR      25  20  81 N8        29.69R WCI  16
GLASGOW        CLOUDY    15  11  83 SE9       29.76S WCI   3
SIDNEY         FLURRIES  14   9  80 E3        29.82S
WOLF POINT     CLOUDY    10   5  80 E6        29.82R WCI   0
GLENDIVE       CLOUDY    17  14  88 NE8       29.77R WCI   7
MILES CITY     MOCLDY    20  16  84 N9        29.71F WCI   9
BAKER          CLOUDY    20  16  84 SE14      29.73S WCI   7
$$

CITY           SKY/WX    TMP DP  RH WIND       PRES   REMARKS
BILLINGS       FAIR      21  18  88 NW3       29.67S
GREAT FALLS    FAIR      20  13  74 S8        29.57F WCI  10
REGINA         MOCLDY     5   1  85 SE9       29.84S WCI  -9
ESTEVAN        CLEAR      0  -2  92 SE7       29.86S WCI -13
$$





USA.gov is the U.S. government's official web portal to all federal, state and local government web resources and services.